1326758434645,100.577
1326758494645,100.850
1326758554645,100.981
1326758614645,100.830
1326758674645,100.653
1326758734645,100.816
1326758794645,100.720
1326758854645,100.733
1326758914645,101.135
1326758974645,100.744
1326759034645,100.827
1326759094645,100.765
1326759154645,101.226
1326759214645,100.823
1326759274645,101.082
1326759334645,101.039
1326759394645,100.826
1326759454645,100.519
1326759514645,100.496
1326759574645,100.870
1326759634645,100.765
1326759694645,100.956
1326759754645,100.889
1326759814645,100.328
1326759874645,100.813
1326759934645,101.076
1326759994645,100.495
1326760054645,100.687
1326760114645,100.632
1326760174645,100.486
1326760234645,100.986
1326760294645,100.518
1326760354645,100.854
1326760414645,100.741
1326760474645,100.812
1326760534645,100.331
1326760594645,100.649
1326760654645,100.763
1326760714645,100.595
1326760774645,100.926
1326760834645,100.590
1326760894645,100.343
1326760954645,100.743
1326761014645,100.947
1326761074645,100.653
1326761134645,100.698
1326761194645,100.588
1326761254645,101.067
1326761314645,100.589
1326761374645,100.626
1326761434645,100.737
1326761494645,100.191
1326761554645,100.244
1326761614645,100.728
1326761674645,100.951
1326761734645,100.760
1326761794645,101.066
1326761854645,100.658
1326761914645,100.391
1326761974645,100.623
1326762034655,100.581
1326762094655,100.857
1326762154655,100.632
1326762214655,100.931
1326762274655,101.127
1326762334655,101.110
1326762394655,101.048
1326762454655,100.890
1326762514655,100.756
1326762574655,100.451
1326762634655,100.409
1326762694655,100.410
1326762754655,100.631
1326762814655,100.663
1326762874655,100.634
1326762934655,100.692
1326762994655,100.467
1326763054655,100.772
1326763114655,100.455
1326763174655,100.810
1326763234655,100.697
1326763294655,100.964
1326763354655,100.779
1326763414655,100.953
1326763474655,100.695
1326763534655,100.800
1326763594655,100.168
1326763654655,100.923
1326763714655,100.857
1326763774655,101.186
1326763834655,100.670
1326763894655,101.090
1326763954655,100.542
1326764014655,100.732
1326764074655,100.947
1326764134655,100.947
1326764194655,100.719
1326764254655,101.032
1326764314655,101.191
1326764374655,100.815
1326764434655,100.407
1326764494655,100.888
1326764554655,101.739
1326764614655,101.058
1326764674655,101.185
1326764734655,100.905
1326764794655,100.796
1326764854655,100.494
1326764914655,100.938
1326764974655,100.931
1326765034655,101.184
1326765094655,100.621
1326765154655,100.960
1326765214655,100.943
1326765274655,101.245
1326765334655,100.855
1326765394655,100.687
1326765454655,100.877
1326765514655,100.717
1326765574655,100.620
1326765634666,101.239
1326765694666,100.661
1326765754666,100.644
1326765814666,101.390
1326765874666,101.190
1326765934666,100.879
1326765994666,101.047
1326766054666,101.132
1326766114666,101.041
1326766174666,101.127
1326766234666,100.742
1326766294666,101.287
1326766354666,100.686
1326766414666,101.073
1326766474666,101.250
1326766534666,101.249
1326766594666,101.303
1326766654666,101.066
1326766714666,100.664
1326766774666,101.135
1326766834666,101.213
1326766894666,100.984
1326766954666,101.133
1326767014666,101.150
1326767074666,101.225
1326767134666,101.443
1326767194666,101.434
1326767254666,101.238
1326767314666,101.643
1326767374666,101.525
1326767434666,101.657
1326767494666,101.330
1326767554666,101.278
1326767614666,101.532
1326767674666,101.479
1326767734666,101.444
1326767794666,101.727
1326767854666,101.466
1326767914666,101.652
1326767974666,101.836
1326768034666,101.724
1326768094666,101.733
1326768154666,101.324
1326768214666,101.901
1326768274666,101.763
1326768334666,101.863
1326768394666,101.765
1326768454666,102.328
1326768514666,101.711
1326768574666,102.858
1326768634666,101.896
1326768694666,101.823
1326768754666,101.780
1326768814666,101.988
1326768874666,102.075
1326768934666,101.971
1326768994666,102.046
1326769054666,102.308
1326769114666,103.049
1326769174666,101.948
1326769234676,102.486
1326769294676,102.300
1326769354676,102.267
1326769414676,101.865
1326769474676,102.438
1326769534676,102.615
1326769594676,102.185
1326769654676,102.318
1326769714676,102.354
1326769774676,102.938
1326769834676,102.926
1326769894676,102.649
1326769954676,102.676
1326770014676,102.375
1326770074676,102.782
1326770134676,102.595
1326770194676,102.094
1326770254676,102.639
1326770314676,102.301
1326770374676,102.619
1326770434676,102.193
1326770494676,102.271
1326770554676,102.042
1326770614676,102.437
1326770674676,102.358
1326770734676,102.159
1326770794676,102.197
1326770854676,102.003
1326770914676,102.510
1326770974676,102.553
1326771034676,102.934
1326771094676,102.131
1326771154676,102.141
1326771214676,102.504
1326771274676,102.427
1326771334676,102.116
1326771394676,101.884
1326771454676,102.163
1326771514676,102.505
1326771574676,101.719
1326771634676,101.425
1326771694676,102.042
1326771754676,101.909
1326771814676,102.031
1326771874676,101.819
1326771934676,101.797
1326771994676,101.764
1326772054676,101.545
1326772114676,102.062
1326772174676,101.567
1326772234676,101.964
1326772294676,101.789
1326772354676,101.453
1326772414676,102.012
1326772474676,102.352
1326772534676,102.437
1326772594676,101.898
1326772654676,101.618
1326772714676,102.039
1326772774676,101.960
1326772834687,102.519
1326772894687,101.904
1326772954687,102.497
1326773014687,102.314
1326773074687,101.783
1326773134687,101.755
1326773194687,102.342
1326773254687,102.006
1326773314687,101.642
1326773374687,102.205
1326773434687,101.853
1326773494687,101.595
1326773554687,101.867
1326773614687,101.768
1326773674687,101.465
1326773734687,101.943
1326773794687,102.264
1326773854687,102.100
1326773914687,102.302
1326773974687,102.088
1326774034687,101.708
1326774094687,101.788
1326774154687,101.759
1326774214687,102.520
1326774274687,102.104
1326774334687,101.410
1326774394687,101.671
1326774454687,101.913
1326774514687,101.840
1326774574687,101.830
1326774634687,101.875
1326774694687,101.653
1326774754687,102.074
1326774814687,101.498
1326774874687,101.583
1326774934687,102.003
1326774994687,101.599
1326775054687,101.987
1326775114687,101.757
1326775174687,102.094
1326775234687,101.688
1326775294687,102.181
1326775354687,102.028
1326775414687,102.708
1326775474687,102.739
1326775534687,102.169
1326775594687,102.269
1326775654687,102.356
1326775714687,101.800
1326775774687,102.568
1326775834687,102.106
1326775894687,103.014
1326775954687,102.902
1326776014687,102.679
1326776074687,102.581
1326776134687,102.462
1326776194687,102.361
1326776254687,102.343
1326776314687,102.911
1326776374687,101.873
1326776434698,102.216
1326776494698,102.279
1326776554698,101.476
1326776614698,102.029
1326776674698,101.532
1326776734698,101.539
1326776794698,101.581
1326776854698,102.026
1326776914698,101.726
1326776974698,101.501
1326777034698,101.289
1326777094698,101.495
1326777154698,101.441
1326777214698,101.350
1326777274698,101.559
1326777334698,100.941
1326777394698,100.931
1326777454698,100.976
1326777514698,101.249
1326777574698,101.141
1326777634698,100.937
1326777694698,100.582
1326777754698,101.077
1326777814698,100.833
1326777874698,100.731
1326777934698,100.764
1326777994698,100.617
1326778054698,101.115
1326778114698,100.674
1326778174698,100.795
1326778234698,100.429
1326778294698,100.872
1326778354698,100.837
1326778414698,101.069
1326778474698,101.093
1326778534698,100.641
1326778594698,100.733
1326778654698,101.036
1326778714698,100.426
1326778774698,100.318
1326778834698,100.647
1326778894698,100.844
1326778954698,100.937
1326779014698,101.280
1326779074698,101.005
1326779134698,100.847
1326779194698,100.509
1326779254698,100.091
1326779314698,100.619
1326779374698,101.001
1326779434698,101.253
1326779494698,101.027
1326779554698,100.307
1326779614698,100.613
1326779674698,100.784
1326779734698,100.323
1326779794698,100.890
1326779854698,100.961
1326779914698,100.511
1326779974698,100.565
1326780034709,100.804
1326780094709,101.076
1326780154709,100.346
1326780214709,100.906
1326780274709,100.250
1326780334709,101.139
1326780394709,100.468
1326780454709,100.742
1326780514709,100.789
1326780574709,100.615
1326780634709,101.068
1326780694709,100.977
1326780754709,101.473
1326780814709,100.988
1326780874709,101.237
1326780934709,101.424
1326780994709,101.008
1326781054709,101.299
1326781114709,100.582
1326781174709,100.734
1326781234709,100.770
1326781294709,101.002
1326781354709,100.740
1326781414709,101.119
1326781474709,100.665
1326781534709,100.607
1326781594709,100.512
1326781654709,100.688
1326781714709,100.467
1326781774709,101.140
1326781834709,100.551
1326781894709,101.214
1326781954709,100.530
1326782014709,100.474
1326782074709,100.826
1326782134709,100.436
1326782194709,100.867
1326782254709,100.696
1326782314709,100.736
1326782374709,100.523
1326782434709,100.729
1326782494709,101.603
1326782554709,100.876
1326782614709,100.693
1326782674709,101.049
1326782734709,100.655
1326782794709,100.747
1326782854709,101.273
1326782914709,101.530
1326782974709,100.456
1326783034709,101.310
1326783094709,100.246
1326783154709,100.613
1326783214709,100.746
1326783274709,100.845
1326783334709,100.579
1326783394709,100.530
1326783454709,100.937
1326783514709,100.348
1326783574709,100.246
1326783634720,100.206
1326783694720,100.179
1326783754720,100.135
1326783814720,99.5700
1326783874720,100.163
1326783934720,100.050
1326783994720,99.6471
1326784054720,99.8428
1326784114720,99.6726
1326784174720,100.073
1326784234720,100.033
1326784294720,100.334
1326784354720,99.9315
1326784414720,100.022
1326784474720,100.131
1326784534720,99.3657
1326784594720,99.6440
1326784654720,99.5438
1326784714720,99.9485
1326784774720,99.7849
1326784834720,99.9625
1326784894720,100.466
1326784954720,99.5445
1326785014720,99.8520
1326785074720,99.7936
1326785134720,100.154
1326785194720,99.6275
1326785254720,99.7096
1326785314720,99.8165
1326785374720,100.115
1326785434720,99.9462
1326785494720,99.9172
1326785554720,99.7402
1326785614720,99.9266
1326785674720,99.3183
1326785734720,99.7525
1326785794720,99.7616
1326785854720,100.220
1326785914720,99.3790
1326785974720,100.382
1326786034720,100.084
1326786094720,100.488
1326786154720,100.318
1326786214720,100.500
1326786274720,100.233
1326786334720,100.268
1326786394720,100.281
1326786454720,101.018
1326786514720,100.476
1326786574720,100.705
1326786634720,100.484
1326786694720,101.165
1326786754720,100.520
1326786814720,100.409
1326786874720,100.349
1326786934720,100.655
1326786994720,100.536
1326787054720,100.986
1326787114720,101.019
1326787174720,100.764
1326787234732,101.220
1326787294732,101.178
1326787354732,101.323
1326787414732,101.207
1326787474732,101.051
1326787534732,100.907
1326787594732,101.065
1326787654732,100.760
1326787714732,100.980
1326787774732,101.522
1326787834732,101.238
1326787894732,101.219
1326787954732,100.743
1326788014732,100.920
1326788074732,100.905
1326788134732,100.978
1326788194732,100.988
1326788254732,100.958
1326788314732,100.867
1326788374732,100.617
1326788434732,100.878
1326788494732,100.212
1326788554732,100.626
1326788614732,100.899
1326788674732,100.671
1326788734732,100.530
1326788794732,100.558
1326788854732,100.685
1326788914732,100.773
1326788974732,100.279
1326789034732,100.776
1326789094732,100.595
1326789154732,100.202
1326789214732,100.454
1326789274732,100.807
1326789334732,100.418
1326789394732,100.881
1326789454732,100.251
1326789514732,100.445
1326789574732,100.233
1326789634732,100.450
1326789694732,100.236
1326789754732,99.8114
1326789814732,100.065
1326789874732,100.176
1326789934732,100.215
1326789994732,99.9396
1326790054732,99.8951
1326790114732,100.174
1326790174732,100.269
1326790234732,100.217
1326790294732,100.074
1326790354732,99.7119
1326790414732,100.017
1326790474732,100.137
1326790534732,99.6800
1326790594732,99.7662
1326790654732,99.7698
1326790714732,99.9553
1326790774732,99.6589
1326790834743,100.205
1326790894743,99.9563
1326790954743,100.113
1326791014743,99.5181
1326791074743,99.5712
1326791134743,99.7466
1326791194743,99.7878
1326791254743,100.129
1326791314743,100.314
1326791374743,100.019
1326791434744,99.7954
1326791494744,100.000
1326791554744,100.154
1326791614744,100.087
1326791674743,99.3788
1326791734743,99.7843
1326791794743,99.9836
1326791854743,99.9073
1326791914743,99.7292
1326791974743,99.8102
1326792034743,99.8496
1326792094743,99.5903
1326792154743,99.4303
1326792214743,99.5025
1326792274743,99.9531
1326792334743,99.8086
1326792394743,99.7965
1326792454743,99.4845
1326792514743,99.9744
1326792574743,99.5378
1326792634743,99.8731
1326792694743,99.6428
1326792754744,99.8396
1326792814744,100.173
1326792874744,99.8685
1326792934744,99.7135
1326792994744,99.9511
1326793054743,99.8346
1326793114743,99.3607
1326793174743,99.3767
1326793234743,99.7385
1326793294743,100.555
1326793354743,100.481
1326793414743,100.238
1326793474743,100.281
1326793534743,100.464
1326793594743,100.220
1326793654743,99.9510
1326793714743,99.6184
1326793774743,99.8007
1326793834743,100.297
1326793894743,100.105
1326793954743,99.9654
1326794014743,99.9520
1326794074743,100.625
1326794134744,100.363
1326794194744,100.643
1326794254744,100.226
1326794314744,99.9607
1326794374743,99.8976
1326794434755,100.259
1326794494755,100.196
1326794554755,100.095
1326794614755,99.8483
1326794674755,99.9413
1326794734755,99.9729
1326794794755,100.076
1326794854755,100.630
1326794914755,100.083
1326794974755,100.157
1326795034755,100.115
1326795094755,100.257
1326795154755,100.193
1326795214755,100.204
1326795274755,99.9463
1326795334755,100.480
1326795394755,99.9890
1326795454755,99.5921
1326795514755,99.8236
1326795574755,100.288
1326795634755,100.135
1326795694755,100.511
1326795754755,99.6263
1326795814755,99.7503
1326795874755,99.9808
1326795934755,99.8597
1326795994755,100.041
1326796054755,100.131
1326796114755,99.6989
1326796174755,99.8397
1326796234755,99.7278
1326796294755,99.2424
1326796354755,99.9484
1326796414755,99.9298
1326796474755,100.484
1326796534755,99.6579
1326796594755,99.7239
1326796654755,99.9269
1326796714755,99.7776
1326796774755,99.5664
1326796834755,100.080
1326796894755,99.6499
1326796954755,99.6480
1326797014755,99.9641
1326797074755,99.4901
1326797134755,99.5858
1326797194755,99.8419
1326797254755,99.5037
1326797314755,99.8701
1326797374755,99.6589
1326797434755,99.1948
1326797494755,99.7524
1326797554755,100.022
1326797614755,99.7073
1326797674755,99.5363
1326797734755,99.4774
1326797794755,99.6032
1326797854755,99.6954
1326797914755,99.9949
1326797974755,99.6052
1326798034767,99.3989
1326798094767,99.8104
1326798154767,99.6485
1326798214767,99.5881
1326798274767,99.5116
1326798334767,99.5686
1326798394767,99.3425
1326798454767,98.8754
1326798514767,99.3371
1326798574767,99.8396
1326798634767,99.7382
1326798694767,99.4625
1326798754767,99.1493
1326798814767,99.9066
1326798874767,99.4473
1326798934767,99.8319
1326798994767,99.6825
1326799054767,99.6226
1326799114767,99.7356
1326799174767,100.006
1326799234767,99.1822
1326799294767,99.9579
1326799354767,99.4821
1326799414767,99.7718
1326799474767,99.8887
1326799534767,99.9110
1326799594767,100.042
1326799654767,99.7995
1326799714767,99.4761
1326799774767,99.6307
1326799834767,100.415
1326799894767,99.2072
1326799954767,99.7174
1326800014767,100.025
1326800074767,99.9462
1326800134767,100.227
1326800194767,100.125
1326800254767,99.9070
1326800314767,100.245
1326800374767,99.9513
1326800434767,100.354
1326800494767,99.6578
1326800554767,99.8310
1326800614767,100.005
1326800674767,99.8985
1326800734767,100.194
1326800794767,99.6471
1326800854767,99.8081
1326800914767,100.013
1326800974767,100.043
1326801034767,100.259
1326801094767,100.016
1326801154767,100.006
1326801214767,99.8675
1326801274767,99.7589
1326801334767,99.7279
1326801394767,99.8826
1326801454767,99.9030
1326801514767,100.159
1326801574767,100.080
1326801634779,100.391
1326801694779,99.9921
1326801754779,99.6795
1326801814779,100.178
1326801874779,100.277
1326801934779,100.153
1326801994779,99.8296
1326802054779,99.5301
1326802114779,100.014
1326802174779,100.180
1326802234779,100.116
1326802294779,100.014
1326802354779,99.9946
1326802414779,99.8660
1326802474779,100.207
1326802534779,99.9922
1326802594779,100.205
1326802654779,99.3444
1326802714779,100.718
1326802774779,99.7614
1326802834779,99.5368
1326802894779,99.8299
1326802954779,99.6709
1326803014779,99.6530
1326803074779,99.7660
1326803134779,99.9591
1326803194779,100.061
1326803254779,99.7180
1326803314779,99.7635
1326803374779,100.154
1326803434779,99.8576
1326803494779,99.8016
1326803554779,100.015
1326803614779,99.6440
1326803674779,99.7609
1326803734779,99.4646
1326803794779,99.8430
1326803854779,99.2097
1326803914779,99.7162
1326803974779,99.7869
1326804034779,99.7955
1326804094779,99.6272
1326804154779,99.6818
1326804214779,99.7903
1326804274779,99.4503
1326804334779,99.3614
1326804394779,99.8347
1326804454779,99.8890
1326804514779,99.6258
1326804574779,99.8535
1326804634779,99.3221
1326804694779,99.5884
1326804754779,99.3922
1326804814779,99.5083
1326804874779,99.4746
1326804934779,99.1948
1326804994779,99.5989
1326805054779,99.9697
1326805114779,99.4217
1326805174779,99.4088
1326805234790,99.4890
1326805294790,99.2383
1326805354790,99.6569
1326805414790,99.8267
1326805474790,99.2776
1326805534790,99.6976
1326805594790,99.8064
1326805654790,99.1640
1326805714790,99.2307
1326805774790,99.6496
1326805834790,99.5098
1326805894790,99.5538
1326805954790,99.3211
1326806014790,99.6319
1326806074790,99.2313
1326806134790,99.6577
1326806194790,99.7822
1326806254790,99.2585
1326806314790,99.7635
1326806374790,99.5288
1326806434790,99.1611
1326806494790,99.6322
1326806554790,99.7881
1326806614790,99.5330
1326806674790,99.5623
1326806734790,99.0068
1326806794790,99.4616
1326806854790,98.9583
1326806914790,99.2129
1326806974790,99.0030
1326807034790,99.2952
1326807094790,98.9004
1326807154790,99.2165
1326807214790,98.8638
1326807274790,99.2353
1326807334790,99.1819
1326807394790,99.1905
1326807454790,99.3070
1326807514790,99.5042
1326807574790,98.8515
1326807634790,98.6936
1326807694790,98.9048
1326807754790,98.8755
1326807814790,98.6556
1326807874790,98.7737
1326807934790,98.9170
1326807994790,98.5514
1326808054790,98.6886
1326808114790,98.6188
1326808174790,98.7426
1326808234790,98.7009
1326808294790,98.6604
1326808354790,98.6399
1326808414790,98.7408
1326808474790,99.2635
1326808534790,98.8531
1326808594790,98.7645
1326808654790,99.1015
1326808714790,98.9882
1326808774790,98.6610
1326808834802,98.7519
1326808894802,98.4901
1326808954802,98.6936
1326809014802,98.6496
1326809074802,98.6593
1326809134802,98.8089
1326809194802,98.8079
1326809254802,99.0263
1326809314802,98.6955
1326809374802,99.0952
1326809434802,98.4461
1326809494802,98.4875
1326809554802,98.7613
1326809614802,98.9321
1326809674802,98.7524
1326809734802,98.6258
1326809794802,98.5821
1326809854802,98.9385
1326809914802,98.7015
1326809974802,97.8738
1326810034802,98.7132
1326810094802,98.5719
1326810154802,98.5194
1326810214802,98.7812
1326810274802,98.5662
1326810334802,98.7010
1326810394802,98.3503
1326810454802,98.6622
1326810514802,98.5417
1326810574802,98.7395
1326810634802,98.7914
1326810694802,98.4361
1326810754802,98.4833
1326810814802,98.4544
1326810874802,98.3876
1326810934802,98.6933
1326810994802,98.7781
1326811054802,98.7838
1326811114802,98.2302
1326811174802,98.6637
1326811234802,98.6387
1326811294802,98.3843
1326811354802,98.0019
1326811414802,98.4849
1326811474802,98.2652
1326811534802,98.9219
1326811594802,98.7341
1326811654802,98.6715
1326811714802,98.4123
1326811774802,98.5387
1326811834802,97.8163
1326811894802,98.7508
1326811954802,98.7628
1326812014802,98.4365
1326812074802,98.0385
1326812134802,98.3001
1326812194802,98.6839
1326812254802,98.7321
1326812314802,98.4876
1326812374802,98.2428
1326812434813,98.9080
1326812494813,98.5567
1326812554813,98.7150
1326812614813,98.5450
1326812674813,98.5681
1326812734813,98.4310
1326812794813,98.3687
1326812854813,98.2787
1326812914813,98.5044
1326812974813,98.5870
1326813034813,98.6567
1326813094813,98.1238
1326813154813,98.3321
1326813214813,98.5837
1326813274813,98.0658
1326813334813,98.6765
1326813394813,98.4721
1326813454813,98.2344
1326813514813,98.8923
1326813574813,99.8343
1326813634813,98.4674
1326813694813,98.8262
1326813754813,98.1641
1326813814813,98.9783
1326813874813,98.1068
1326813934813,98.6924
1326813994813,98.2857
1326814054813,98.0626
1326814114813,98.4033
1326814174813,98.3484
1326814234813,98.7669
1326814294813,98.5130
1326814354813,98.3114
1326814414813,98.4177
1326814474813,98.6378
1326814534813,98.3859
1326814594813,98.3443
1326814654813,98.7655
1326814714813,98.2389
1326814774813,98.7827
1326814834813,98.5046
1326814894813,97.9911
1326814954813,98.7347
1326815014813,98.1489
1326815074813,98.7378
1326815134813,98.5645
1326815194813,98.6097
1326815254813,99.0944
1326815314813,98.9735
1326815374813,98.9650
1326815434813,98.6479
1326815494813,98.9816
1326815554813,98.5238
1326815614813,98.8183
1326815674813,98.7763
1326815734813,99.1797
1326815794813,99.1496
1326815854813,98.2855
1326815914813,98.6817
1326815974813,98.8133
1326816034825,98.7454
1326816094825,98.3304
1326816154825,99.0634
1326816214825,98.8016
1326816274825,98.5279
1326816334825,98.7157
1326816394825,99.3172
1326816454825,98.9354
1326816514825,98.9308
1326816574825,99.3116
1326816634825,98.7494
1326816694825,99.0799
1326816754825,98.9645
1326816814825,98.7568
1326816874825,98.8200
1326816934825,99.0749
1326816994825,98.9394
1326817054825,99.0484
1326817114825,98.6280
1326817174825,98.6570
1326817234825,98.9117
1326817294825,98.9793
1326817354825,98.4969
1326817414825,98.5712
1326817474825,98.7896
1326817534825,98.5804
1326817594825,98.5268
1326817654825,98.9638
1326817714825,98.7958
1326817774825,98.2693
1326817834825,98.6010
1326817894825,98.5899
1326817954825,99.0007
1326818014825,98.4718
1326818074825,98.9055
1326818134825,98.4429
1326818194825,98.5878
1326818254825,98.5874
1326818314825,98.5995
1326818374825,97.9917
1326818434825,97.9576
1326818494825,98.6356
1326818554825,98.3954
1326818614825,98.9149
1326818674825,98.1469
1326818734825,98.3133
1326818794825,98.3120
1326818854825,98.5102
1326818914825,98.2540
1326818974825,98.1006
1326819034825,97.7491
1326819094825,98.0578
1326819154825,98.0650
1326819214825,98.1269
1326819274825,97.8282
1326819334825,97.7208
1326819394825,97.6534
1326819454825,97.6776
1326819514825,98.1229
1326819574825,98.4946
1326819634836,97.9470
1326819694836,97.9458
1326819754836,97.5699
1326819814836,98.0000
1326819874836,98.1497
1326819934836,97.3962
1326819994836,98.2199
1326820054836,97.4996
1326820114836,97.7873
1326820174836,97.9531
1326820234836,97.8232
1326820294836,97.1770
1326820834836,97.4332
1326820894836,97.1705
1326820954836,97.9323
1326821014836,97.7149
1326821074836,97.6210
1326821134836,97.2552
1326821194836,97.3644
1326821254836,97.4193
1326821314836,97.5381
1326821374836,97.4983
1326821434836,97.4909
1326821494836,97.3351
1326821554836,97.3582
1326821614836,97.3749
1326821674836,97.6006
1326821734836,97.4792
1326821794836,97.5838
1326821854836,97.5710
1326821914836,98.0422
1326821974836,97.6217
1326822034836,97.2865
1326822094836,97.0753
1326822154836,97.7431
1326822214836,97.3995
1326822274836,97.3983
1326822334836,97.6270
1326822394836,97.2259
1326822454836,97.3333
1326822514836,97.6292
1326822574836,97.6928
1326822634836,97.8580
1326822694836,97.4887
1326822754836,97.9826
1326822814836,98.0463
1326822874836,97.6586
1326822934836,97.5319
1326822994836,97.8853
1326823054836,97.7375
1326823114836,97.9121
1326823174836,97.6838
1326823234847,97.6713
1326823294847,97.9951
1326823354847,97.5201
1326823414847,97.5450
1326823474847,97.4599
1326823534847,97.9741
1326823594847,97.5693
1326823654847,97.4369
1326823714847,97.6901
1326823774847,97.5280
1326823834847,97.6490
1326823894847,97.7656
1326823954847,97.6444
1326824014847,97.8078
1326824074847,98.1513
1326824134847,97.4918
1326824194847,97.5259
1326824254847,97.4069